Location: Recife
(8.0585°S, 34.8848°W)
Time: 15:27:54
(UTC-03:00)

Transit 2A - Pass Details

Date: 23 April 2026
Orbit: 594 x 950 km, 66.7° (Epoch: 12 May)

Event Time Altitude Azimuth Distance (km) Brightness Sun altitude
Rises 18:28:50 0° 202° (SSW) 3,446 9.5 -19.0°
Reaches altitude 10° 18:31:15 10° 203° (SSW) 2,550 8.8 -19.6°
Maximum altitude 18:37:15 82° 290° (WNW) 938 6.4 -21.0°
Drops below altitude 10° 18:43:31 10° 17° (NNE) 2,658 8.7 -22.6°
Sets 18:46:05 0° 18° (NNE) 3,602 9.4 -23.2°
